Location: Flint Hill Observatory
(31.1875°N, 100.5222°W)
Time: 08:41:28
(UTC-06:00)

Daily predictions for brighter satellites

Satellite Brightness Start Highest point End
(mag) Time Altitude Azimuth Time Altitude Azimuth Time Altitude Azimuth
Milstar 3 3.5 18:25:35 10° W 18:32:37 54° SSW 18:39:16 10° ESE
Cosmos 372 Rocket 3.9 18:28:55 10° N 18:34:00 67° ENE 18:39:03 10° SSE
Cosmos 2058 3.0 18:30:54 10° S 18:35:00 82° W 18:39:06 10° N
OAO 1 Rocket 4.5 18:29:53 10° WNW 18:35:11 72° NNE 18:40:29 10° E
CORIOLIS 4.3 18:30:59 10° S 18:36:19 81° WSW 18:41:42 10° NNW
Cosmos 1805 Rocket 3.6 18:35:08 10° S 18:39:30 60° E 18:43:55 10° NNE
Cosmos 1461 4.0 18:37:59 10° SW 18:42:02 43° WNW 18:45:58 10° NNE
Nadezhda 4 Rocket 4.3 18:39:02 10° SSE 18:44:55 46° E 18:50:52 10° NNE
Cosmos 1626 2.3 18:42:37 10° S 18:46:15 52° E 18:49:53 10° NNE
SKYMED 2 3.6 18:43:04 10° NNE 18:47:25 89° WNW 18:51:45 10° SSW
Sich 1 3.2 18:48:07 10° S 18:52:25 52° E 18:56:44 10° NNE
Cosmos 1356 Rocket 3.2 18:51:03 10° S 18:55:01 72° E 18:58:59 10° NNE
Aureole 1 Rocket 3.8 18:51:31 10° S 18:56:21 57° E 19:02:48 10° NNE
CZ-2C R/B 4.4 18:52:12 10° SSW 18:56:40 33° W 19:01:02 10° NW
Lacrosse 5 rocket 1.2 18:54:52 10° NW 18:58:43 90° WNW 19:02:49 10° SE
ALOS 3.6 18:57:16 10° ESE 19:00:20 18° ENE 19:03:25 10° NNE
Cosmos 2180 Rocket 4.4 18:54:22 10° N 19:00:35 78° E 19:06:50 10° S
Coronas F rocket 1.3 18:59:59 10° SSE 19:02:15 40° E 19:03:52 16° NNE
Cosmos 1633 Rocket 3.1 18:58:31 10° S 19:02:51 61° E 19:07:11 10° NNE
Cosmos 1603 3.9 19:00:45 10° S 19:06:09 51° ESE 19:11:33 10° NNE
Cosmos 1092 Rocket 4.2 19:01:16 10° SSE 19:07:19 50° E 19:13:24 10° NNE
Delta 2 Rocket 3.6 19:04:54 10° SW 19:08:01 37° SSE 19:09:44 21° E
Cosmos 292 Rocket 4.0 19:05:19 10° S 19:09:49 45° ESE 19:14:08 11° NNE
Cosmos 1455 2.2 19:10:09 10° N 19:13:53 55° E 19:17:38 10° SSE
Cosmos 1184 Rocket 3.1 19:13:55 10° SSW 19:17:14 67° W 19:20:34 10° N
Cosmos 2278 Rocket 3.8 19:13:22 10° NW 19:18:33 37° WSW 19:23:42 10° S
SJ-6B 3.0 19:17:56 10° SSE 19:21:53 53° ENE 19:25:55 10° N
Spot 2 Rocket 4.1 19:22:32 10° SE 19:26:57 32° ENE 19:31:22 10° N
USA 229 DEB 4.0 19:20:27 10° SW 19:27:14 69° WNW 19:34:09 10° NNE
USA 229 4.0 19:20:32 10° SW 19:27:20 69° WNW 19:34:15 10° NNE
OTV 4 3.4 19:28:14 10° WSW 19:30:00 15° SW 19:31:45 10° S
Iridium 4 Rocket 3.0 19:25:50 10° S 19:30:23 68° E 19:34:39 10° N
Cosmos 1707 Rocket 4.2 19:29:45 10° NNW 19:34:00 56° W 19:38:15 10° S
FREGAT/IRIS 2.5 19:34:28 10° S 19:37:30 86° W 19:40:34 10° NNW
SL-19 R/B 4.3 19:34:15 10° SSE 19:40:05 57° ENE 19:45:35 10° N
NOSS 3-1 (A) 3.7 19:36:07 10° S 19:41:17 38° ESE 19:42:21 35° E
SL-16 R/B 4.4 19:41:12 10° WSW 19:45:33 23° WNW 19:49:56 10° N
Cosmos 2369 Rocket 4.2 19:42:12 10° NNE 19:42:51 12° NNE 19:42:51 12° NNE
Resurs 01 Rocket 1.9 19:44:34 10° SSE 19:49:46 46° NNE 19:53:15 10° N
Cosmos 1933 Rocket 3.5 19:46:07 10° S 19:50:33 83° W 19:53:46 19° N
Cosmos 1680 Rocket 3.8 19:53:32 10° SSW 19:58:41 64° WNW 20:02:29 19° N
Tiangong 1 3.3 19:58:40 10° W 20:00:16 21° NW 20:00:16 21° NW
Genesis I 3.4 19:58:25 10° SSW 20:01:52 67° SW 20:01:52 67° SW
Lacrosse 4 Rocket 2.2 19:59:12 10° NNW 20:01:46 38° NNW 20:01:46 38° NNW
Cosmos 1655 Rocket 3.9 19:58:11 10° S 20:04:31 72° E 20:09:16 19° NNE
Helios 1B rocket 3.7 20:07:51 31° S 20:07:51 31° S 20:10:03 10° S
Cosmos 1627 Rocket 4.5 20:00:30 10° S 20:06:42 81° W 20:12:52 10° N
OAO 1 4.4 20:01:20 10° W 20:06:48 75° NNW 20:07:22 67° NE
Cosmos 1869 4.5 20:04:55 10° NNW 20:08:46 43° W 20:12:34 10° SSW
FENGYUN 3A 3.6 20:03:42 10° SSE 20:09:02 86° WSW 20:14:27 10° NNW
In-Cosmos 22 Rocket 4.3 20:09:49 10° S 20:13:54 53° SSE 20:13:54 53° SSE
NOSS 3-1 (C) 3.4 20:13:15 10° SW 20:18:53 71° WNW 20:20:20 51° N
Cosmos 1943 3.3 20:17:23 10° SSW 20:23:01 74° WNW 20:23:49 63° NNW
USA 215 3.2 20:28:14 67° NNE 20:28:14 67° NNE 20:34:29 10° NW
CCE 1 Rocket 4.5 20:26:10 10° WSW 20:30:09 61° SSW 20:30:09 61° SSW
ALOS 3.7 20:33:12 10° SSW 20:37:27 35° W 20:41:43 10° NNW
Centaur AC-72 4.5 20:36:40 10° WSW 20:43:11 44° S 20:47:32 35° SE
